Location: Worth Mountain WMA
(34.9569°N, 81.4819°W)
Time: 17:26:56
(UTC-05:00)

Cosmos 2278 Rocket - Pass Details

Date: 18 August 2017
Orbit: 839 x 847 km, 71.0° (Epoch: 23 November)

Event Time Altitude Azimuth Distance (km) Brightness Sun altitude
Rises 23:46:19 0° 347° (NNW) 3,405 6.2 -36.4°
Reaches altitude 10° 23:48:57 10° 356° (N) 2,468 5.2 -36.7°
Enters shadow 23:51:30 24° 14° (NNE) 1,684 4.0 -37.0°
